TimeEST,TemperatureF,Dew PointF,Humidity,Sea Level PressureIn,VisibilityMPH,Wind Direction,Wind SpeedMPH,Gust SpeedMPH,PrecipitationIn,Events,Conditions,WindDirDegrees,DateUTC
12:53 AM,37.9,34.0,86,30.10,10.0,Calm,Calm,-,N/A,,Clear,0,2012-11-05 05:53:00
1:53 AM,39.0,35.1,86,30.10,10.0,Calm,Calm,-,N/A,,Clear,0,2012-11-05 06:53:00
2:53 AM,36.0,33.1,89,30.10,7.0,Calm,Calm,-,N/A,,Clear,0,2012-11-05 07:53:00
3:33 AM,35.6,35.6,100,30.10,5.0,Calm,Calm,-,N/A,,Partly Cloudy,0,2012-11-05 08:33:00
3:53 AM,36.0,34.0,93,30.11,7.0,Calm,Calm,-,N/A,,Clear,0,2012-11-05 08:53:00
4:53 AM,35.1,32.0,89,30.11,7.0,Calm,Calm,-,N/A,,Clear,0,2012-11-05 09:53:00
5:53 AM,35.1,32.0,89,30.12,10.0,Calm,Calm,-,N/A,,Clear,0,2012-11-05 10:53:00
6:53 AM,33.1,30.9,92,30.12,9.0,Calm,Calm,-,N/A,,Partly Cloudy,0,2012-11-05 11:53:00
7:53 AM,34.0,32.0,92,30.13,9.0,Calm,Calm,-,N/A,,Clear,0,2012-11-05 12:53:00
8:53 AM,39.9,37.0,89,30.14,8.0,Calm,Calm,-,N/A,,Clear,0,2012-11-05 13:53:00
9:53 AM,45.0,37.9,76,30.12,10.0,Calm,Calm,-,N/A,,Clear,0,2012-11-05 14:53:00
10:53 AM,48.9,35.1,59,30.12,10.0,Calm,Calm,-,N/A,,Clear,0,2012-11-05 15:53:00
11:53 AM,52.0,32.0,47,30.11,10.0,WSW,3.5,-,N/A,,Clear,250,2012-11-05 16:53:00
12:53 PM,53.1,30.0,41,30.06,10.0,SE,3.5,-,N/A,,Clear,140,2012-11-05 17:53:00
1:53 PM,55.0,28.9,37,30.03,10.0,Calm,Calm,-,N/A,,Partly Cloudy,0,2012-11-05 18:53:00
2:53 PM,57.0,28.0,33,30.01,10.0,ENE,6.9,-,N/A,,Clear,60,2012-11-05 19:53:00
3:53 PM,57.9,27.0,31,30.00,10.0,North,6.9,-,N/A,,Clear,350,2012-11-05 20:53:00
4:53 PM,55.0,28.9,37,29.99,10.0,NNE,5.8,-,N/A,,Partly Cloudy,30,2012-11-05 21:53:00
5:53 PM,52.0,28.9,41,30.00,10.0,NE,3.5,-,N/A,,Clear,40,2012-11-05 22:53:00
6:53 PM,48.9,30.0,48,30.02,10.0,NNE,9.2,-,N/A,,Clear,30,2012-11-05 23:53:00
7:53 PM,46.9,30.9,54,30.02,10.0,Calm,Calm,-,N/A,,Clear,0,2012-11-06 00:53:00
8:53 PM,46.0,30.9,56,30.02,10.0,NNE,3.5,-,N/A,,Partly Cloudy,20,2012-11-06 01:53:00
9:53 PM,46.9,33.1,59,30.02,10.0,Calm,Calm,-,N/A,,Overcast,0,2012-11-06 02:53:00
10:53 PM,48.0,32.0,54,30.01,10.0,North,4.6,-,N/A,,Overcast,10,2012-11-06 03:53:00
11:53 PM,46.0,35.1,66,30.00,10.0,ENE,3.5,-,N/A,,Overcast,60,2012-11-06 04:53:00